CHINASAT 16 (SJ-13) (42662 NORAD) Tracking and Keplerian Element Data

This shows tracking and keplerian element data for the satellite.

Feedback or suggestion? Click here.




ElementValue
Catalog42662
NameCHINASAT 16 (SJ-13)
Epoch Orbit2011
Epoch Day269.84771542
Epoch Year2022
RAAN93.8112
Inclination0.0652
Eccentricity0.0007022
Argument of Perigee134.9231
Mean Anonmoly192.5965
Mean Motion1.00269755
Decay Rate-3.49E-06
L11 42662U 17018A 22269.84771542 -.00000349 00000+0 00000+0 0 9991
L22 42662 0.0652 93.8112 0007022 134.9231 192.5965 1.00269755 20119

Live tracking and technical data element details for CHINASAT 16 (SJ-13) (NORAD 42662). CHINASAT 16 (SJ-13) can be tracked NOW for your location showing map with azimuth and elevation plus other details from your city location.

Track the satellite on the map from your city or location and see movement details for azimuth, elevation, latitude, longitude, range, height, and movement on the map or in text.







IsCatalogInMostPopularTable: catalog: 42662, numindb: 607
Update: records affected: 1



GetName: 42662 CHINASAT 16 (SJ-13)

Hit Count: updated at: Wed, 28 Sep 2022 22:59:54 GMT